Tracking 19176 objects as of 26-May-2018
HD Live streaming from Space Station
objects crossing your sky now

COSMOS 2042

Track COSMOS 2042 now!
10-day predictions
COSMOS 2042 is classified as:


NORAD ID: 20236
Int'l Code: 1989-074E
Perigee: 1,409.1 km
Apogee: 1,416.8 km
Inclination: 82.6 °
Period: 113.9 minutes
Semi major axis: 7783 km
RCS: 1.1192 m2 (large)
Launch date: September 14, 1989
Source: Commonwealth of Independent States (former USSR) (CIS)
Launch site: PLESETSK MISSILE AND SPACE COMPLEX (PKMTR)
aabbcc
Your satellite tracking list
Your tracking list is empty




NASA's NSSDC Master Catalog

Two Line Element Set (TLE):
1 20236U 89074E   18145.97380942 +.00000021 +00000-0 +53852-4 0  9992
2 20236 082.5805 302.4599 0004928 351.3387 130.5261 12.64156568439657
Source of the keplerian elements: AFSPC